Location: Bougoudala
(13.2282°N, 4.9477°W)
Time: 11:06:33
(UTC+00:00)

CSL-04 Rocket - Pass Details

Date: 29 January 2020
Orbit: 806 x 860 km, 99.0° (Epoch: 25 February)

Event Time Altitude Azimuth Distance (km) Brightness Sun altitude
Rises 18:51:27 0° 152° (SSE) 3,379 6.7 -8.4°
Reaches altitude 10° 18:53:54 10° 146° (SE) 2,453 5.9 -8.9°
Maximum altitude 18:59:02 43° 75° (ENE) 1,169 4.0 -10.1°
Drops below altitude 10° 19:04:13 10° 5° (N) 2,481 5.9 -11.3°
Sets 19:06:41 0° 359° (N) 3,422 6.7 -11.9°
